Tracking 25963 objects as of 12-Aug-2022
HD Live streaming from Space Station
objects crossing your sky now

OPS 3148

Track OPS 3148 now!
OPS 3148 is classified as:


NORAD ID: 3889
Int'l Code: 1969-036A
Perigee: 31,858.8 km
Apogee: 39,648.6 km
Inclination: 10.4 °
Period: 1,434.1 minutes
Semi major axis: 42124 km
RCS: Unknown
Launch date: April 13, 1969
Source: United States (US)
Launch site: AIR FORCE EASTERN TEST RANGE (AFETR)
aabbcc
Your satellite tracking list
Your tracking list is empty




NASA's NSSDC Master Catalog

Two Line Element Set (TLE):
1 03889U 69036A   22058.58164633 0.00000000  00000-0  00000-0 0    08
2 03889  10.3920  54.5705 0924613 151.8146 208.1854  1.00414653    04
Source of the keplerian elements: McCants